Theta_e
326 329 328 329 328 325 324 328 327 327 330 335 335 333 336 334 331 328 332 331 329 328 328 326 324 322 320 320 319 317 312 310 308 310 310 308 309 308 309 308 308 307 306 307
330 328 326 326 327 328 327 329 328 329 330 333 334 333 334 331 329 332 334 331 330 329 328 326 325 323 320 319 318 314 307 308 310 310 309 309 309 308 308 308 308 307 307 306
328 328 327 328 327 328 329 329 327 327 333 333 334 334 332 330 333 336 333 331 330 330 329 327 325 323 321 319 317 310 307 310 310 310 309 308 308 307 309 307 306 306 306 306
326 328 330 328 328 329 330 329 330 334 335 334 333 331 331 331 333 335 333 331 331 330 329 326 324 322 321 319 311 307 310 310 310 309 308 308 307 307 307 304 305 305 306 306
329 331 328 328 329 329 332 330 331 332 334 333 331 332 335 335 335 334 333 331 331 330 328 326 324 323 320 310 309 310 311 310 310 308 308 308 307 307 306 304 305 305 306 306
331 332 332 331 333 331 331 334 330 332 332 332 332 332 333 333 333 332 331 331 330 329 327 326 324 320 310 311 310 311 311 310 307 308 308 307 307 306 304 304 305 306 305 304
335 331 331 332 330 331 331 332 335 330 330 330 330 333 333 332 331 331 330 329 328 327 326 324 320 314 309 309 311 312 306 307 308 308 307 307 307 305 305 306 307 305 305 304
331 332 334 331 329 330 330 334 332 329 329 334 333 332 332 331 330 330 328 327 326 325 322 319 312 307 310 310 308 308 308 310 309 309 309 307 307 305 305 306 304 304 304 305
330 330 329 331 331 328 331 335 334 334 333 332 332 331 331 329 328 327 326 323 321 320 317 311 308 311 311 310 309 308 310 310 309 308 306 304 304 305 304 305 304 305 305 305
334 335 332 330 333 330 329 333 331 330 331 331 331 330 329 327 326 323 321 319 318 316 314 307 304 310 310 309 309 309 309 307 308 307 306 304 305 304 304 305 305 305 304 304
333 332 332 331 329 328 334 333 332 332 331 330 329 328 327 326 323 321 320 318 316 314 311 309 311 310 310 309 308 309 307 309 308 304 305 305 305 305 306 306 306 305 305 303
334 331 332 331 327 328 328 331 331 331 330 329 328 327 326 323 322 320 318 317 313 312 313 313 312 311 309 309 308 309 308 308 306 304 303 304 305 306 306 307 306 305 304 303
324 329 331 330 330 330 328 328 329 330 329 329 328 326 324 322 321 319 318 315 313 314 314 313 312 310 309 309 308 308 307 308 306 305 303 305 306 306 305 306 306 305 304 302
327 328 328 329 325 327 327 329 328 328 328 327 326 325 323 322 321 319 316 314 314 314 314 313 311 309 309 308 307 308 308 308 303 304 306 306 306 305 306 306 305 304 302 302
324 324 325 324 327 328 328 327 327 326 326 325 325 324 323 321 319 316 314 315 314 314 313 310 309 310 309 308 308 308 307 306 303 306 306 306 305 304 306 306 305 303 301 301
323 321 321 320 327 327 326 326 325 325 324 324 324 323 322 319 316 315 314 314 313 313 311 310 310 310 308 308 306 307 304 303 304 306 306 305 305 304 306 305 303 302 301 300
326 324 324 327 327 326 325 325 324 324 324 324 323 321 319 317 315 314 314 313 314 313 310 311 311 310 308 306 301 303 303 304 306 306 305 305 304 305 305 304 303 302 301 300
320 326 325 326 327 326 325 325 324 324 324 323 321 319 317 315 314 314 314 314 314 312 312 311 311 308 306 301 302 303 304 305 305 305 305 305 304 305 305 303 302 302 301 299
319 320 325 326 326 325 325 325 324 324 323 322 320 318 317 315 314 314 314 314 313 312 312 310 306 304 306 299 302 304 305 305 305 305 304 303 306 305 304 303 303 302 301 299
317 318 318 319 324 325 324 324 324 323 322 321 319 318 317 316 315 314 314 313 313 313 312 311 306 307 303 302 303 304 305 304 305 304 303 303 305 305 304 303 302 302 300 299
314 314 315 317 317 321 322 323 323 323 321 320 319 318 317 317 315 314 313 313 313 313 312 308 307 306 304 301 304 304 305 304 304 302 303 303 305 304 303 303 302 301 300 298
314 313 311 312 315 316 320 323 321 322 321 320 319 318 317 316 315 314 313 314 313 308 306 306 306 305 304 303 304 304 304 304 303 302 304 304 304 303 302 302 301 301 299 298
315 315 312 312 313 312 314 320 319 319 320 321 319 318 317 316 315 314 314 313 312 309 308 307 307 304 301 303 304 304 304 303 300 302 303 304 303 303 302 302 301 300 298 297
316 319 319 319 314 314 314 314 320 321 321 320 318 318 317 316 315 314 314 312 310 307 306 306 299 300 302 304 304 304 302 300 301 302 303 303 302 302 302 300 299 298 298 297
313 314 318 319 319 318 319 317 316 319 319 319 317 315 317 316 315 314 313 310 308 305 303 298 300 302 303 303 303 301 300 300 300 301 301 301 300 300 299 298 298 297 297 298
315 314 315 317 316 316 316 318 319 318 318 318 317 316 316 315 314 313 311 309 306 304 300 296 300 301 302 302 300 300 300 299 298 299 298 298 298 298 297 297 297 297 297 298
313 313 314 316 317 314 316 318 317 318 318 318 316 315 314 313 313 312 308 304 303 302 299 299 301 302 302 300 300 299 299 298 297 296 296 295 295 294 297 297 297 297 297 298
Wind_Speed
11 13 14 8 9 11 9 7 8 9 9 9 10 15 28 43 38 29 34 30 27 23 22 17 13 11 11 9 5 6 4 5 7 7 11 11 12 14 15 17 17 21 17 14
8 13 18 15 15 11 9 7 6 9 6 7 13 29 31 35 30 36 34 35 30 26 21 19 14 12 11 8 7 5 5 3 6 8 10 10 10 14 15 14 17 22 20 18
7 7 8 14 17 15 9 9 7 9 6 9 7 9 22 29 34 31 30 35 30 24 21 16 12 11 10 8 6 4 2 4 4 7 9 9 12 11 10 16 19 18 16 17
5 4 12 6 8 10 12 15 6 16 11 10 15 24 22 14 33 31 35 32 26 23 20 18 16 13 10 8 4 1 4 4 5 8 9 12 12 12 16 18 16 13 17 20
6 7 6 12 10 6 3 5 18 20 21 25 28 30 24 24 34 33 31 29 26 22 20 18 14 9 6 3 3 4 3 6 9 10 9 12 14 13 17 18 14 17 22 28
2 9 15 1 3 6 2 4 10 27 22 24 22 7 4 27 29 30 28 24 23 20 17 13 8 5 5 3 3 3 9 10 7 7 11 13 11 15 14 13 19 22 18 22
6 7 5 2 2 3 6 7 13 22 28 25 8 20 33 28 26 24 23 22 19 15 11 7 7 6 5 5 5 7 7 5 5 9 13 11 13 14 13 17 16 10 23 16
3 3 6 3 4 5 5 25 32 24 19 17 39 41 34 29 27 24 22 18 14 11 8 8 6 7 5 3 2 4 5 7 9 11 11 12 14 15 13 11 19 19 20 13
9 8 11 20 5 17 25 35 37 43 40 33 38 37 33 30 25 20 18 15 12 9 9 9 9 6 4 4 3 4 5 7 10 11 10 12 11 16 15 15 20 16 17 18
7 8 12 20 6 27 27 29 30 40 42 41 39 34 31 27 24 19 19 17 10 10 9 8 8 9 6 2 6 3 6 8 10 11 13 9 13 17 20 18 17 16 17 22
5 14 17 13 21 28 36 38 40 41 39 37 33 31 30 26 23 25 19 13 10 8 7 7 9 7 4 4 5 5 5 7 10 8 11 13 14 15 17 19 17 13 17 20
2 8 6 15 25 29 29 31 37 41 38 32 25 28 26 27 27 20 20 17 13 10 9 8 8 3 1 5 6 5 10 12 14 12 12 11 14 16 20 20 10 13 20 24
4 3 13 11 16 22 21 33 33 38 36 34 30 30 28 28 21 23 18 14 12 13 12 9 7 3 2 5 5 7 11 10 13 20 8 10 13 18 23 8 10 16 23 31
18 20 15 13 7 32 35 22 27 30 32 33 32 28 28 26 24 19 15 14 15 13 11 7 3 5 3 5 5 8 8 11 18 10 10 15 15 16 13 11 15 22 27 25
10 8 6 17 17 24 38 32 33 33 33 32 29 28 26 25 21 16 18 17 14 12 9 7 4 2 3 5 5 4 9 9 14 13 15 13 12 17 10 17 23 30 30 28
10 19 26 29 24 25 33 31 32 33 29 28 26 23 20 23 21 20 18 16 14 11 8 7 4 2 6 6 7 1 3 7 12 14 11 11 18 16 13 20 27 27 30 29
7 36 30 29 31 26 26 28 29 27 28 25 21 18 24 22 21 19 16 13 12 11 8 5 5 3 5 7 8 5 8 11 14 12 12 17 15 14 16 22 25 26 27 27
18 22 23 27 28 26 27 27 26 28 29 27 26 23 23 21 20 18 16 14 12 10 8 6 4 4 4 5 5 7 10 12 12 13 13 16 18 6 16 24 24 24 28 31
8 19 20 21 23 24 25 23 20 24 28 27 25 24 22 20 19 17 16 13 9 8 5 0 3 1 4 5 6 7 9 10 12 12 14 14 11 15 22 22 21 23 29 30
3 7 13 18 21 20 19 19 21 23 26 25 23 24 22 21 18 17 14 12 9 9 7 2 3 6 6 6 9 8 9 12 11 13 13 13 14 19 22 17 16 23 31 28
3 5 4 6 11 13 13 16 20 20 25 24 25 25 22 20 18 17 14 12 8 5 3 2 4 2 4 4 8 10 10 11 11 13 14 15 15 16 19 14 20 26 32 27
2 7 8 10 13 14 10 17 17 24 25 24 24 23 22 20 17 13 11 9 8 5 5 3 4 2 4 4 7 11 9 9 10 10 14 12 15 15 14 19 24 28 32 26
2 4 10 11 14 12 17 15 15 20 26 27 26 23 21 20 18 17 16 10 6 6 4 6 3 4 7 8 7 7 8 12 12 8 13 11 13 15 17 21 24 26 29 26
2 6 8 6 17 15 14 15 16 20 21 28 19 20 22 21 15 14 11 8 2 7 3 3 3 11 8 9 6 6 9 14 8 9 12 10 13 17 21 24 24 24 26 26
4 3 6 5 13 15 14 11 14 17 21 24 25 20 23 18 20 19 12 9 5 4 3 8 14 10 10 6 3 6 10 12 5 7 10 12 15 19 22 21 21 25 26 26
4 8 9 6 6 7 9 10 13 16 18 27 27 25 22 21 17 14 11 9 7 6 8 10 9 6 6 4 6 5 9 12 9 7 10 11 14 18 22 20 24 25 25 26
7 8 11 10 7 6 12 13 15 15 22 35 33 22 21 18 13 8 9 11 10 9 9 11 9 7 7 4 4 5 7 9 10 9 12 13 14 17 19 21 23 23 24 26
Wind_Direction
220 211 248 261 275 214 213 204 180 229 229 162 164 132 125 131 135 150 163 183 175 170 170 178 187 193 221 251 268 295 297 293 314 342 346 346 345 349 342 338 335 338 340 325
221 219 227 253 270 265 221 261 209 198 204 169 132 128 139 151 159 166 176 178 176 173 176 188 199 212 235 256 269 307 315 348 9 340 338 349 340 332 340 332 329 330 332 328
237 221 217 246 234 252 220 215 220 214 164 130 137 138 151 160 164 174 166 170 170 175 185 193 201 219 238 258 282 299 1 41 356 317 325 323 322 333 320 321 322 332 340 335
216 180 229 239 200 249 260 204 158 95 94 89 98 84 74 97 170 168 162 166 167 172 175 184 196 210 244 261 280 26 40 20 296 292 306 314 320 315 320 330 337 350 347 346
183 207 244 239 256 228 103 250 153 141 148 137 116 92 69 104 140 151 159 161 165 174 181 188 204 232 233 213 119 66 3 270 280 297 318 326 335 332 327 341 356 346 340 333
191 207 229 122 124 262 97 70 7 140 138 139 126 107 135 121 132 137 146 157 165 174 183 199 220 205 167 139 93 243 258 291 318 346 324 331 332 331 338 353 347 347 354 349
225 232 247 109 273 282 124 195 55 161 153 155 139 147 136 135 131 142 150 157 166 174 188 207 182 178 157 154 235 272 306 332 2 324 325 329 323 344 356 352 349 349 344 356
136 63 266 182 70 150 189 132 107 105 122 125 126 131 134 137 139 147 150 156 174 181 179 159 159 143 149 227 279 340 358 8 337 336 334 334 328 343 347 342 333 326 331 331
184 200 276 286 242 146 131 128 128 133 130 133 129 132 140 138 146 150 154 158 165 158 157 154 150 154 137 13 345 356 3 316 318 326 331 340 340 341 336 324 321 313 320 333
140 178 164 220 239 160 170 147 144 137 140 141 136 141 138 142 146 148 153 159 164 157 145 147 147 137 113 260 314 348 325 11 351 333 327 353 355 344 336 328 310 310 330 345
106 147 149 180 150 123 127 133 133 137 140 138 136 139 144 148 148 155 159 163 157 152 140 126 125 109 171 270 317 326 10 353 331 360 7 348 350 339 343 336 328 329 340 352
312 0 286 164 146 139 137 144 144 143 141 143 138 145 155 152 156 158 156 161 161 158 130 112 133 162 222 300 322 360 351 351 353 351 332 341 359 359 340 330 343 340 348 352
277 344 88 114 149 163 156 138 142 139 141 142 148 154 153 155 155 157 165 166 161 137 147 152 162 168 282 321 4 347 350 12 350 345 6 4 353 352 340 3 3 348 347 346
72 81 57 30 58 113 108 99 116 127 136 142 148 151 155 153 155 162 162 143 140 154 161 169 175 178 260 309 346 350 16 9 1 15 9 358 356 353 351 4 353 349 346 343
149 137 58 39 150 150 137 138 127 125 132 136 145 152 155 153 156 150 145 153 155 157 154 151 174 218 306 316 320 347 2 352 4 6 6 23 2 346 341 341 344 343 348 344
175 174 162 152 158 123 128 131 131 131 132 137 144 150 149 148 149 151 157 157 157 155 149 161 180 276 322 319 332 319 40 335 342 355 3 347 344 339 328 341 348 351 346 345
166 190 202 144 133 137 136 143 140 141 143 145 148 145 147 153 153 155 154 151 160 158 158 176 185 250 305 338 354 91 21 15 13 19 357 344 346 332 332 347 354 346 345 347
340 165 144 135 121 123 133 139 143 148 152 156 155 152 158 162 159 156 152 158 163 162 168 198 260 301 317 10 94 45 31 18 1 356 344 350 342 321 345 356 349 340 346 352
42 85 134 139 143 137 140 143 148 156 158 160 158 158 163 164 161 159 162 170 169 173 186 255 349 238 17 70 78 45 30 7 4 3 357 360 340 340 348 355 339 338 347 354
112 82 106 106 129 130 134 152 157 156 164 161 159 162 160 162 163 161 162 167 183 214 216 276 75 52 70 85 44 28 27 356 7 360 358 351 348 341 344 347 333 340 346 355
192 173 166 157 144 122 157 158 163 171 171 163 166 164 163 162 165 171 172 170 163 188 233 281 164 112 10 121 49 29 16 8 6 5 356 354 358 341 343 342 341 345 345 353
194 228 209 187 198 179 157 168 168 168 173 170 167 168 164 160 162 166 194 205 180 166 160 132 124 325 269 87 42 26 10 351 345 12 6 10 4 353 352 345 343 344 342 354
11 117 166 173 185 205 187 185 174 182 170 170 173 171 170 164 173 175 168 157 191 198 171 176 226 348 112 80 48 39 346 339 352 19 11 359 360 347 343 340 337 339 346 352
129 116 112 96 188 180 183 185 182 180 183 178 185 169 171 163 168 196 200 181 194 189 156 184 109 118 92 73 48 338 341 343 25 30 7 346 338 328 327 331 333 346 353 354
249 221 112 115 133 138 148 168 189 178 173 165 160 168 183 179 192 178 181 176 175 166 138 128 132 118 90 83 19 358 351 359 21 13 349 342 336 336 342 349 352 353 357 355
134 144 155 133 138 150 171 175 160 173 165 147 144 161 168 176 178 171 182 188 173 165 150 144 143 111 82 43 23 7 349 350 18 360 344 345 339 340 347 357 352 356 358 355
88 142 142 135 147 143 160 158 174 167 172 163 158 160 166 164 164 176 170 155 142 130 137 140 134 115 99 54 12 355 339 336 354 348 346 348 340 348 349 353 353 358 359 355